When you browse on this site, cookies collect data to enhance your experience and personalize the content and advertising you see.
Visit our Privacy Policy to learn more. By continuing to use the site, you agree to this use of cookies and data.
  • In Czech Republic
  • List of Countries
  • For 7 days
  • Water Temperature
  • Weather Map
  • Weather Widgets
  • user-avatar
    Login

    Hourly Weather Oy

    Today, 2 June, Tuesday

    Time Temperature Precipitation Wind Pressure Humidity
    00:00 +9°C° 0 mm 1 mps 746 mmHg 54%
    01:00 +9°C° 0 mm 1 mps 746 mmHg 56%
    02:00 +8°C° 0 mm 1 mps 746 mmHg 58%
    03:00 +7°C° 0 mm 1 mps 746 mmHg 59%
    04:00 +9°C° 0 mm 1 mps 747 mmHg 56%
    05:00 +11°C° 0 mm 1 mps 747 mmHg 52%
    06:00 +12°C° 0 mm 1 mps 747 mmHg 49%
    07:00 +14°C° 0 mm 0 mps 747 mmHg 44%
    08:00 +16°C° 0 mm 0 mps 746 mmHg 39%
    09:00 +19°C° 0 mm 0 mps 747 mmHg 32%
    10:00 +22°C° 0 mm 1 mps 746 mmHg 29%
    11:00 +23°C° 0 mm 1 mps 746 mmHg 26%
    12:00 +24°C° 0 mm 1 mps 746 mmHg 24%
    13:00 +24°C° 0 mm 1 mps 746 mmHg 23%
    14:00 +24°C° 0 mm 1 mps 745 mmHg 22%
    15:00 +24°C° 0 mm 1 mps 745 mmHg 23%
    16:00 +23°C° 0 mm 1 mps 745 mmHg 24%
    17:00 +23°C° 0 mm 1 mps 745 mmHg 25%
    18:00 +22°C° 0 mm 1 mps 745 mmHg 26%
    19:00 +20°C° 0 mm 1 mps 745 mmHg 34%
    20:00 +18°C° 0 mm 1 mps 746 mmHg 42%
    21:00 +15°C° 0 mm 1 mps 746 mmHg 50%
    22:00 +14°C° 0 mm 1 mps 746 mmHg 54%
    23:00 +12°C° 0 mm 1 mps 746 mmHg 59%

    Tomorrow, 3 June, Wednesday

    Time Temperature Precipitation Wind Pressure Humidity
    00:00 +11°C° 0 mm 1 mps 746 mmHg 63%
    01:00 +10°C° 0 mm 1 mps 746 mmHg 65%
    02:00 +9°C° 0 mm 0 mps 747 mmHg 67%
    03:00 +8°C° 0 mm 0 mps 747 mmHg 69%
    04:00 +10°C° 0 mm 0 mps 747 mmHg 64%
    05:00 +11°C° 0 mm 0 mps 747 mmHg 60%
    06:00 +13°C° 0 mm 0 mps 748 mmHg 55%
    07:00 +15°C° 0 mm 0 mps 747 mmHg 50%
    08:00 +17°C° 0 mm 0 mps 747 mmHg 44%
    09:00 +20°C° 0 mm 0 mps 747 mmHg 39%
    10:00 +23°C° 0 mm 1 mps 747 mmHg 35%
    11:00 +23°C° 0 mm 1 mps 747 mmHg 31%
    12:00 +24°C° 0 mm 1 mps 747 mmHg 28%
    13:00 +24°C° 0 mm 2 mps 747 mmHg 28%
    14:00 +24°C° 0 mm 2 mps 746 mmHg 29%
    15:00 +24°C° 0 mm 2 mps 746 mmHg 30%
    16:00 +23°C° 0 mm 2 mps 746 mmHg 31%
    17:00 +23°C° 0 mm 2 mps 746 mmHg 32%
    18:00 +23°C° 0 mm 2 mps 746 mmHg 34%
    19:00 +20°C° 0 mm 2 mps 746 mmHg 41%
    20:00 +19°C° 0 mm 1 mps 747 mmHg 49%
    21:00 +16°C° 0 mm 1 mps 747 mmHg 56%
    22:00 +15°C° 0 mm 1 mps 747 mmHg 59%
    23:00 +12°C° 0 mm 0 mps 747 mmHg 61%

    Day after tomorrow, 4 June, Thursday

    Time Temperature Precipitation Wind Pressure Humidity
    00:00 +11°C° 0 mm 0 mps 747 mmHg 63%
    01:00 +11°C° 0 mm 0 mps 747 mmHg 65%
    02:00 +10°C° 0 mm 0 mps 748 mmHg 67%
    03:00 +10°C° 0 mm 0 mps 748 mmHg 69%
    04:00 +11°C° 0 mm 0 mps 748 mmHg 65%
    05:00 +13°C° 0 mm 0 mps 748 mmHg 60%
    06:00 +14°C° 0 mm 0 mps 748 mmHg 56%
    07:00 +17°C° 0 mm 0 mps 748 mmHg 50%
    08:00 +21°C° 0 mm 1 mps 748 mmHg 44%
    09:00 +23°C° 0 mm 1 mps 748 mmHg 38%
    10:00 +23°C° 0 mm 1 mps 748 mmHg 36%
    11:00 +23°C° 0 mm 1 mps 748 mmHg 34%
    12:00 +24°C° 0 mm 2 mps 747 mmHg 32%
    13:00 +24°C° 0 mm 2 mps 747 mmHg 32%
    14:00 +24°C° 0 mm 2 mps 747 mmHg 33%
    15:00 +24°C° 0 mm 2 mps 747 mmHg 33%
    16:00 +21°C° 0.2 mm 2 mps 747 mmHg 42%
    17:00 +20°C° 0.2 mm 1 mps 747 mmHg 51%
    18:00 +19°C° 0.2 mm 1 mps 747 mmHg 59%
    19:00 +18°C° 0.1 mm 1 mps 747 mmHg 65%
    20:00 +16°C° 0.1 mm 1 mps 747 mmHg 71%
    21:00 +14°C° 0.1 mm 1 mps 748 mmHg 77%
    22:00 +13°C° 0.2 mm 1 mps 748 mmHg 80%
    23:00 +12°C° 0.2 mm 2 mps 748 mmHg 82%

    5 June, Friday

    Time Temperature Precipitation Wind Pressure Humidity
    00:00 +10°C° 0.2 mm 2 mps 748 mmHg 85%
    01:00 +9°C° 0 mm 2 mps 748 mmHg 86%
    02:00 +10°C° 0 mm 1 mps 748 mmHg 86%
    03:00 +9°C° 0 mm 1 mps 748 mmHg 86%
    04:00 +10°C° 0 mm 1 mps 749 mmHg 84%
    05:00 +11°C° 0 mm 1 mps 749 mmHg 81%
    06:00 +12°C° 0 mm 1 mps 749 mmHg 79%
    07:00 +13°C° 0 mm 1 mps 749 mmHg 71%
    08:00 +15°C° 0 mm 2 mps 749 mmHg 63%
    09:00 +17°C° 0 mm 2 mps 749 mmHg 55%
    10:00 +17°C° 0 mm 3 mps 748 mmHg 53%
    11:00 +18°C° 0 mm 3 mps 748 mmHg 51%
    12:00 +18°C° 0 mm 3 mps 748 mmHg 48%
    13:00 +18°C° 0 mm 3 mps 748 mmHg 47%
    14:00 +19°C° 0 mm 2 mps 748 mmHg 45%
    15:00 +19°C° 0 mm 2 mps 747 mmHg 44%
    16:00 +19°C° 0 mm 2 mps 747 mmHg 44%
    17:00 +19°C° 0 mm 2 mps 747 mmHg 43%
    18:00 +19°C° 0 mm 2 mps 747 mmHg 43%
    19:00 +18°C° 0 mm 2 mps 747 mmHg 47%
    20:00 +16°C° 0 mm 2 mps 748 mmHg 52%
    21:00 +15°C° 0 mm 2 mps 748 mmHg 56%
    22:00 +13°C° 0 mm 2 mps 748 mmHg 61%
    23:00 +11°C° 0 mm 1 mps 748 mmHg 65%

    6 June, Saturday

    Time Temperature Precipitation Wind Pressure Humidity
    00:00 +10°C° 0 mm 1 mps 748 mmHg 70%
    01:00 +9°C° 0 mm 1 mps 748 mmHg 74%
    02:00 +8°C° 0 mm 1 mps 748 mmHg 78%
    03:00 +8°C° 0 mm 1 mps 748 mmHg 82%
    04:00 +9°C° 0 mm 1 mps 748 mmHg 79%
    05:00 +10°C° 0 mm 1 mps 748 mmHg 76%
    06:00 +12°C° 0 mm 1 mps 748 mmHg 73%
    07:00 +12°C° 0 mm 2 mps 748 mmHg 72%
    08:00 +13°C° 0 mm 2 mps 748 mmHg 70%
    09:00 +14°C° 0 mm 2 mps 748 mmHg 69%
    10:00 +15°C° 0.1 mm 2 mps 748 mmHg 64%
    11:00 +16°C° 0.1 mm 2 mps 747 mmHg 60%
    12:00 +18°C° 0.1 mm 2 mps 747 mmHg 55%
    13:00 +18°C° 0.2 mm 3 mps 747 mmHg 52%
    14:00 +19°C° 0.2 mm 3 mps 747 mmHg 49%
    15:00 +20°C° 0.2 mm 3 mps 746 mmHg 46%
    16:00 +19°C° 0 mm 3 mps 746 mmHg 47%
    17:00 +19°C° 0 mm 3 mps 746 mmHg 47%
    18:00 +19°C° 0 mm 3 mps 746 mmHg 47%
    19:00 +18°C° 0 mm 3 mps 746 mmHg 55%
    20:00 +16°C° 0 mm 3 mps 746 mmHg 62%
    21:00 +15°C° 0 mm 2 mps 746 mmHg 69%
    22:00 +14°C° 0 mm 2 mps 746 mmHg 75%
    23:00 +12°C° 0 mm 2 mps 746 mmHg 82%

    7 June, Sunday

    Time Temperature Precipitation Wind Pressure Humidity
    00:00 +10°C° 0 mm 3 mps 746 mmHg 88%
    01:00 +10°C° 0 mm 2 mps 746 mmHg 88%
    02:00 +9°C° 0 mm 2 mps 746 mmHg 88%
    03:00 +8°C° 0 mm 2 mps 747 mmHg 87%
    04:00 +9°C° 0 mm 3 mps 747 mmHg 83%
    05:00 +10°C° 0 mm 3 mps 747 mmHg 79%
    06:00 +11°C° 0 mm 3 mps 747 mmHg 74%
    07:00 +13°C° 0 mm 3 mps 746 mmHg 68%
    08:00 +15°C° 0 mm 4 mps 746 mmHg 61%
    09:00 +18°C° 0 mm 4 mps 746 mmHg 54%
    10:00 +19°C° 0 mm 4 mps 745 mmHg 48%
    11:00 +21°C° 0 mm 4 mps 745 mmHg 42%
    12:00 +23°C° 0 mm 5 mps 744 mmHg 37%
    13:00 +23°C° 0 mm 5 mps 744 mmHg 36%
    14:00 +25°C° 0 mm 5 mps 744 mmHg 34%
    15:00 +25°C° 0 mm 5 mps 743 mmHg 33%
    16:00 +25°C° 0 mm 5 mps 743 mmHg 34%
    17:00 +25°C° 0 mm 5 mps 743 mmHg 35%
    18:00 +23°C° 0 mm 5 mps 742 mmHg 37%
    19:00 +22°C° 0 mm 5 mps 743 mmHg 42%
    20:00 +20°C° 0 mm 5 mps 743 mmHg 47%
    21:00 +19°C° 0 mm 5 mps 743 mmHg 52%
    22:00 +16°C° 0 mm 5 mps 743 mmHg 54%
    23:00 +15°C° 0 mm 5 mps 743 mmHg 57%
    Show more